Location: México DF
(19.4326°N, 99.1332°W)
Time: 02:12:56
(UTC+00:00)

ISS - Pass Details

Date: 08 May 2026
Orbit: 414 x 424 km, 51.6° (Epoch: 15 May)

Event Time Altitude Azimuth Distance (km) Brightness Sun altitude
Rises 11:33:21 0° 319° (NW) 2,356 -0.2 -7.7°
Reaches altitude 10° 11:35:27 10° 317° (NW) 1,494 -1.2 -7.2°
Maximum altitude 11:38:47 75° 232° (SW) 437 -3.8 -6.5°
Drops below altitude 10° 11:42:08 10° 147° (SSE) 1,495 -0.8 -5.8°
Sets 11:44:14 0° 145° (SE) 2,358 0.3 -5.3°
